TimeMST,TemperatureF,Dew PointF,Humidity,Sea Level PressureIn,VisibilityMPH,Wind Direction,Wind SpeedMPH,Gust SpeedMPH,PrecipitationIn,Events,Conditions,WindDirDegrees,DateUTC
12:56 AM,8.1,3.9,83,30.07,-9999.0,Calm,Calm,-,N/A,,Unknown,0,2013-02-26 07:56:00
1:56 AM,5.0,1.9,87,30.09,-9999.0,Calm,Calm,-,0.01,,Unknown,0,2013-02-26 08:56:00
2:56 AM,5.0,1.0,84,30.09,-9999.0,Calm,Calm,-,N/A,,Unknown,0,2013-02-26 09:56:00
3:56 AM,3.0,-0.0,87,30.12,-9999.0,Calm,Calm,-,N/A,,Unknown,0,2013-02-26 10:56:00
4:56 AM,3.0,-0.9,84,30.14,-9999.0,Calm,Calm,-,N/A,,Unknown,0,2013-02-26 11:56:00
5:56 AM,1.0,-2.9,83,30.18,-9999.0,Calm,Calm,-,N/A,,Unknown,0,2013-02-26 12:56:00
6:56 AM,-2.0,-6.0,83,30.22,-9999.0,Calm,Calm,-,N/A,,Unknown,0,2013-02-26 13:56:00
7:56 AM,-2.0,-6.0,83,30.26,-9999.0,Calm,Calm,-,N/A,,Unknown,0,2013-02-26 14:56:00
8:56 AM,7.0,3.0,84,30.23,-9999.0,Calm,Calm,-,N/A,,Unknown,0,2013-02-26 15:56:00
9:56 AM,7.0,3.0,84,30.26,-9999.0,Calm,Calm,-,N/A,,Unknown,0,2013-02-26 16:56:00
10:56 AM,10.9,7.0,84,30.25,-9999.0,Calm,Calm,-,N/A,,Unknown,0,2013-02-26 17:56:00
11:56 AM,16.0,9.0,74,30.22,-9999.0,Variable,4.6,-,N/A,,Unknown,0,2013-02-26 18:56:00
12:56 PM,18.0,6.1,60,30.22,-9999.0,Variable,4.6,-,N/A,,Unknown,0,2013-02-26 19:56:00
1:56 PM,19.0,5.0,54,30.24,-9999.0,Variable,6.9,-,N/A,,Unknown,0,2013-02-26 20:56:00
2:56 PM,21.9,10.0,60,30.22,-9999.0,Variable,5.8,-,N/A,,Unknown,0,2013-02-26 21:56:00
3:56 PM,18.0,10.9,74,30.29,-9999.0,Variable,3.5,-,0.01,,Unknown,0,2013-02-26 22:56:00
4:56 PM,17.1,12.9,84,30.31,-9999.0,Calm,Calm,-,0.02,,Unknown,0,2013-02-26 23:56:00
5:56 PM,16.0,8.1,71,30.34,-9999.0,Variable,4.6,-,0.02,,Unknown,0,2013-02-27 00:56:00
6:56 PM,9.0,5.0,84,30.42,-9999.0,Calm,Calm,-,N/A,,Unknown,0,2013-02-27 01:56:00
7:56 PM,3.9,1.0,88,30.48,-9999.0,Calm,Calm,-,N/A,,Unknown,0,2013-02-27 02:56:00
8:56 PM,1.0,-2.9,83,30.46,-9999.0,Calm,Calm,-,N/A,,Unknown,0,2013-02-27 03:56:00
9:56 PM,-4.0,-8.0,83,30.51,-9999.0,Calm,Calm,-,N/A,,Unknown,0,2013-02-27 04:56:00
10:56 PM,-7.1,-11.0,83,30.53,-9999.0,Calm,Calm,-,N/A,,Unknown,0,2013-02-27 05:56:00
11:56 PM,-4.0,-9.0,79,30.48,-9999.0,Calm,Calm,-,N/A,,Unknown,0,2013-02-27 06:56:00